This is the latest recevied weather packets stored in our database for station/object N5JXS. If no packets are shown the sender has not sent any weather packets the latest 10 day(s).
| Time | Temp. | Humidity | Pressure | Rain* | Wind** | Luminosity | Snow |
|---|---|---|---|---|---|---|---|
| 1787848290 | 21.11° C | 57% | 1032.2 hPa | 0 mm | - | 200 W/m² | - |
| 1787847985 | 21.11° C | 58% | 1031.9 hPa | 0 mm | - | 185 W/m² | - |
| 1787847685 | 20.56° C | 59% | 1031.9 hPa | 0 mm | - | 438 W/m² | - |
| 1787847380 | 20.56° C | 60% | 1032.1 hPa | 0 mm | - | 501 W/m² | - |
| 1787847076 | 20° C | 63% | 1031.8 hPa | 0 mm | - | 83 W/m² | - |
| 1787846772 | 20° C | 64% | 1031.7 hPa | 0 mm | - | 55 W/m² | - |
| 1787846467 | 19.44° C | 64% | 1032.1 hPa | 0 mm | - | 63 W/m² | - |
| 1787846162 | 19.44° C | 64% | 1032.1 hPa | 0 mm | - | 47 W/m² | - |
| 1787845857 | 19.44° C | 66% | 1031.8 hPa | 0 mm | - | 53 W/m² | - |
| 1787845553 | 18.89° C | 64% | 1031.7 hPa | 0 mm | - | 97 W/m² | - |
| 1787845248 | 18.89° C | 62% | 1031.8 hPa | 0 mm | - | 83 W/m² | - |
| 1787844944 | 19.44° C | 63% | 1031.4 hPa | 0 mm | - | 81 W/m² | - |
| 1787844643 | 18.89° C | 61% | 1031.9 hPa | 0 mm | - | 124 W/m² | - |
| 1787844338 | 18.89° C | 65% | 1031.9 hPa | 0 mm | - | 186 W/m² | - |
| 1787844038 | 18.89° C | 64% | 1031.8 hPa | 0 mm | - | 115 W/m² | - |
| 1787843733 | 18.33° C | 64% | 1031.6 hPa | 0 mm | - | 86 W/m² | - |
| 1787843428 | 18.33° C | 64% | 1031.7 hPa | 0 mm | - | 81 W/m² | - |
| 1787843125 | 18.33° C | 63% | 1031.8 hPa | 0 mm | - | 67 W/m² | - |
| 1787842825 | 17.78° C | 65% | 1031.6 hPa | 0 mm | - | 52 W/m² | - |
| 1787842519 | 17.78° C | 68% | 1031.8 hPa | 0 mm | - | 51 W/m² | - |
| 1787842219 | 17.22° C | 69% | 1031.8 hPa | 0 mm | - | 69 W/m² | - |
| 1787841914 | 17.22° C | 71% | 1032.1 hPa | 0 mm | - | 65 W/m² | - |
| 1787841610 | 16.67° C | 71% | 1031.8 hPa | 0 mm | - | 70 W/m² | - |
| 1787841308 | 16.11° C | 74% | 1031.9 hPa | 0 mm | - | 92 W/m² | - |
| 1787841004 | 15.56° C | 78% | 1031.9 hPa | 0 mm | - | 86 W/m² | - |
* Rain latest hour (hover to see other rain measurements)
** Current wind speed in m/s (hover to see current wind gust speed)